Regional Weather Roundup
Issued by NWS Cleveland, OH

Home | Current Version | Previous Version | Graphics & Text | Print | Product List | Glossary On
Versions: 1 2 3 4 5 6 7 8 9 10 11 12 13 14 15 16 17 18 19 20 21 22 23 24 25 26 27 28 29 30 31 32 33 34 35 36 37 38 39 40 41 42 43 44 45 46 47 48 49 50
000
ASUS41 KCLE 040100
RWRCLE
OHIO REGIONAL WEATHER ROUNDUP
NATIONAL WEATHER SERVICE WILMINGTON, OH
900 PM EDT FRI JUL 03 2015

NOTE: "FAIR" INDICATES FEW OR NO CLOUDS BELOW 12,000 FEET WITH NO
SIGNIFICANT WEATHER AND/OR OBSTRUCTIONS TO VISIBILITY.

OHZ001>008-015>018-024>027-034-035-043-044-040200-
   NORTHWEST OHIO

CITY           SKY/WX    TMP DP  RH WIND       PRES   REMARKS
DEFIANCE       CLEAR     69  56  62 E6        29.91S
FINDLAY        PTCLDY    68  54  60 NE9       29.89F
TOLEDO EXPRESS CLEAR     64  54  69 CALM      29.91S
TOLEDO EXEC    CLEAR     66  52  60 E3        29.92S
LIMA           PTCLDY    67  58  72 NE7       29.90S
$$

OHZ009>014-019>023-028>033-038-089-040200-
   NORTHEAST OHIO

CITY           SKY/WX    TMP DP  RH WIND       PRES   REMARKS
CLE-HOPKINS    MOCLDY    67  55  65 NE10      29.93R
CLE-LAKEFRONT  MOCLDY    68  55  63 NE12      29.89F
CUY CO. ARPT   MOCLDY    68  55  64 NE8       29.92S
LORAIN-ELYRIA  MOCLDY    66  55  67 E7        29.91F
ASHTABULA      MOCLDY    65  49  56 NE3       29.93F
AKRON-CANTON   CLOUDY    72  59  63 NE5       29.89S
WOOSTER        NOT AVBL
MANSFIELD      MOCLDY    68  58  70 N7        29.91S
YOUNGSTOWN     CLOUDY    71  58  63 N8        29.90S
$$

OHZ042-051>053-060>062-070>072-077>081-040200-
  SOUTHWEST OHIO

CITY           SKY/WX    TMP DP  RH WIND       PRES   REMARKS
CINC-COVINGTON CLOUDY    71  63  75 E9        29.88S
CINC-LUNKEN    MOCLDY    70  63  78 E5        29.88R
HAMILTON       PTCLDY    69  64  84 N5        29.89R
DAYTON         NOT AVBL
WRIGHT-PAT AFB MOCLDY    71  64  79 CALM      29.88S
DAYTON GENERAL MOCLDY    69  63  81 CALM      29.89R
WILMINGTON     MOCLDY    67  63  87 CALM      29.89R FOG
$$

OHZ036-037-039>041-045>050-054>059-063>069-073>076-082>088-040200-
  CENTRAL AND SOUTHEAST OHIO

CITY           SKY/WX    TMP DP  RH WIND       PRES   REMARKS
COLUMBUS       CLOUDY    69  64  84 SE6       29.87F
OSU AIRPORT    MOCLDY    69  64  84 E6        29.87F
BOLTON FIELD   NOT AVBL
RICKENBACK AFB NOT AVBL
NEWARK         CLOUDY    69  66  90 CALM      29.88F FOG
MARION         MOCLDY    69  59  70 NE8       29.90S
LANCASTER      MOCLDY    67  63  87 CALM      29.88F FOG
ZANESVILLE     LGT RAIN  66  62  87 CALM      29.88S FOG
NEW PHILLY     CLOUDY    69  65  86 CALM      29.89S
$$


USA.gov is the U.S. government's official web portal to all federal, state and local government web resources and services.